If you wish to contribute or participate in the discussions about articles you are invited to join SKYbrary as a registered user

 Actions

Angel S Adami Airport

From SKYbrary Wiki

SUAA
Airport
ICAO: SUAA
Summary
Name Angel S Adami Airport
Region
Territory Uruguay UY.gif
Location , Montevideo
Serving Montevideo
Elevation 53.035 m
174 ft
174 ft53.035 m
Type medium airport
Coordinates 34° 47' 21.15" S, 56° 15' 52.93" W
Runways
Designator Length Width Surface ROPS
18/36 1250 m4,101.05 ft
23 m75.459 ft
CON /


METAR
Observation SUAA 281900Z 19011KT 9999 FEW011 SCT070 BKN200 17/11 Q1008
Station Melilla
Date/Time 28 October 2020 19:00:00
Wind direction 190°
Wind speed 11 kts
Lowest cloud amount few clouds
Temperature 17°C
Dew point 11°C
Humidity 67%
QNH 1008 hPa
Weather condition n/a